Location: Arbon
(43.0005°N, 0.7472°E)
Time: 12:20:59
(UTC+00:00)

Vanguard 1 - Pass Details

Date: 02 December 2020
Orbit: 648 x 3834 km, 34.3° (Epoch: 23 January)

Event Time Altitude Azimuth Distance (km) Brightness Sun altitude
Rises 04:59:00 0° 243° (WSW) 3,222 - -23.3°
Reaches altitude 10° 05:01:09 10° 235° (SW) 2,470 - -22.9°
Exits shadow 05:03:04 22° 222° (SW) 1,915 11.2 -22.5°
Maximum altitude 05:06:30 41° 166° (SSE) 1,596 11.2 -21.9°
Drops below altitude 10° 05:15:22 10° 100° (E) 4,082 14.4 -20.3°
Sets 05:19:59 0° 95° (E) 5,625 15.5 -19.5°
